Date String (YYYY-MM-DD hh:mm:ss) UTC,Instrument flags,absolute air pressure of the measurement (hPa),sample flow rate (lpm),inlet stack bypass flow (lpm),air temperature of the measurement (°C),ambient temperature measured by the external sensor (°C),aerosol sample conditioner tube jacket temperature (°C),OPC LED temperature (°C),internal box temperature (°C),relative humidity of the measurement (%),span deviation,mass concentration of particles derived from Lorenz-Mie calculation of OPC scattering (μg/m³),mass concentration of particles derived from Lorenz-Mie calculation of OPC scattering (μg/m³),mass concentration of particles derived from Lorenz-Mie calculation of OPC scattering (μg/m³)
DateTimeUTC,F1_M11,P_M11,Q1_M11,Q2_M11,T1_M11,T2_M11,T3_M11,T4_M11,T5_M11,U1_M11,ZSPAN_M11,X2_M11,X0_M11,X1_M11
2023-11-19 09:00:00,SystemResetWarning,0823.1,5.00,000.00,024.4,023.1,000.0,032.8,025.6,16.5,0000.0,0000.56,0000.83,0000.47
2023-11-19 09:01:00,SystemResetWarning,0823.1,5.00,000.00,024.4,023.1,000.0,032.8,025.6,16.5,0000.0,0000.57,0000.84,0000.48
2023-11-19 09:02:00,SystemResetWarning,0823.2,5.00,000.00,024.4,023.1,000.0,032.8,025.6,16.5,0000.0,0000.60,0000.89,0000.50
2023-11-19 09:03:00,SystemResetWarning,0823.2,5.00,000.00,024.3,023.1,000.0,032.8,025.6,16.5,0000.0,0000.61,0000.92,0000.50
2023-11-19 09:04:00,SystemResetWarning,0823.2,5.00,000.00,024.3,023.1,000.0,032.8,025.6,16.5,0000.0,0000.62,0000.93,0000.50
2023-11-19 09:05:00,SystemResetWarning,0823.2,5.00,000.00,024.3,023.1,000.0,032.7,025.6,16.4,0000.0,0000.62,0000.92,0000.50
2023-11-19 09:06:00,SystemResetWarning,0823.2,5.00,000.00,024.3,023.1,000.0,032.7,025.6,16.5,0000.0,0000.64,0000.93,0000.51
2023-11-19 09:07:00,SystemResetWarning,0823.2,5.00,000.00,024.3,023.0,000.0,032.7,025.6,16.5,0000.0,0000.65,0000.98,0000.51
2023-11-19 09:08:00,SystemResetWarning,0823.3,5.00,000.00,024.3,023.0,000.0,032.7,025.6,16.6,0000.0,0000.66,0000.98,0000.52
2023-11-19 09:09:00,SystemResetWarning,0823.3,4.99,000.00,024.3,023.0,000.0,032.7,025.6,16.6,0000.0,0000.68,0001.03,0000.53
2023-11-19 09:10:00,SystemResetWarning,0823.2,5.00,000.00,024.3,023.0,000.0,032.7,025.5,16.6,0000.0,0000.67,0001.01,0000.53
2023-11-19 09:11:00,SystemResetWarning,0823.2,5.00,000.00,024.3,023.0,000.0,032.7,025.5,16.6,0000.0,0000.68,0001.04,0000.54
2023-11-19 09:12:00,SystemResetWarning,0823.2,5.01,000.00,024.2,023.0,000.0,032.7,025.5,16.7,0000.0,0000.71,0001.11,0000.55
2023-11-19 09:13:00,SystemResetWarning,0823.1,5.01,000.00,024.2,023.0,000.0,032.7,025.5,16.7,0000.0,0000.74,0001.21,0000.55
2023-11-19 09:14:00,SystemResetWarning,0823.1,5.00,000.00,024.2,023.0,000.0,032.7,025.6,16.7,0000.0,0000.76,0001.22,0000.56
2023-11-19 09:15:00,SystemResetWarning,0823.2,5.00,000.00,024.2,023.0,000.0,032.7,025.6,16.7,0000.0,0000.76,0001.21,0000.57
2023-11-19 09:16:00,SystemResetWarning,0823.3,4.99,000.00,024.2,023.0,000.0,032.7,025.6,16.7,0000.0,0000.76,0001.22,0000.58
2023-11-19 09:17:00,SystemResetWarning,0823.3,4.99,000.00,024.2,023.0,000.0,032.6,025.6,16.8,0000.0,0000.76,0001.24,0000.58
2023-11-19 09:18:00,SystemResetWarning,0823.3,5.00,000.00,024.2,023.0,000.0,032.6,025.5,16.8,0000.0,0000.76,0001.20,0000.59
2023-11-19 09:19:00,SystemResetWarning,0823.3,5.00,000.00,024.2,023.0,000.0,032.6,025.6,16.8,0000.0,0000.77,0001.23,0000.60
2023-11-19 09:20:00,SystemResetWarning,0823.1,5.01,000.00,024.2,023.0,000.0,032.6,025.5,16.7,0000.0,0000.77,0001.20,0000.60
2023-11-19 09:21:00,SystemResetWarning,0823.2,5.00,000.00,024.2,023.0,000.0,032.6,025.5,15.8,0000.0,0000.77,0001.58,0000.61
2023-11-19 09:22:00,SystemResetWarning,0823.1,5.00,000.00,024.2,023.0,000.0,032.6,025.5,15.6,0000.0,0000.77,0002.14,0000.62
2023-11-19 09:23:00,SystemResetWarning,0823.1,5.00,000.00,024.2,023.0,000.0,032.6,025.5,16.5,0000.0,0000.77,0002.13,0000.63
2023-11-19 09:24:00,SystemResetWarning,0823.1,5.00,000.00,024.2,023.0,000.0,032.6,025.5,16.7,0000.0,0000.74,0002.03,0000.62
2023-11-19 09:25:00,SystemResetWarning,0823.1,5.00,000.00,024.2,023.0,000.0,032.6,025.5,16.6,0000.0,0000.74,0002.01,0000.63
2023-11-19 09:26:00,SystemResetWarning,0823.0,5.00,000.00,024.2,023.0,000.0,032.6,025.5,15.3,0000.0,0000.75,0002.06,0000.62
2023-11-19 09:27:00,SystemResetWarning,0823.0,4.99,000.00,024.2,023.0,000.0,032.6,025.5,15.4,0000.0,0000.77,0002.49,0000.62
2023-11-19 09:28:00,SystemResetWarning,0823.0,4.99,000.00,024.1,023.0,000.0,032.6,025.5,15.7,0000.0,0000.77,0002.51,0000.62
2023-11-19 09:29:00,SystemResetWarning,0823.0,4.99,000.00,024.1,023.0,000.0,032.6,025.5,16.1,0000.0,0000.78,0002.53,0000.61
2023-11-19 09:30:00,SystemResetWarning,0823.0,5.00,000.00,024.1,022.9,000.0,032.6,025.5,16.4,0000.0,0000.78,0002.54,0000.61
2023-11-19 09:31:00,SystemResetWarning,0822.9,5.01,000.00,024.1,022.9,000.0,032.5,025.5,16.3,0000.0,0000.79,0002.55,0000.60
2023-11-19 09:32:00,SystemResetWarning,0822.9,5.00,000.00,024.1,022.9,000.0,032.5,025.4,16.3,0000.0,0000.81,0002.49,0000.59
2023-11-19 09:33:00,SystemResetWarning,0822.9,5.01,000.00,024.1,022.9,000.0,032.5,025.4,16.2,0000.0,0000.80,0001.62,0000.58
2023-11-19 09:34:00,SystemResetWarning,0823.0,5.00,000.00,024.1,022.9,000.0,032.5,025.4,16.0,0000.0,0000.77,0001.56,0000.57
2023-11-19 09:35:00,SystemResetWarning,0823.0,5.01,000.00,024.0,022.9,000.0,032.5,025.4,16.1,0000.0,0000.77,0001.56,0000.57
2023-11-19 09:36:00,SystemResetWarning,0822.9,5.00,000.00,024.0,022.8,000.0,032.5,025.3,16.2,0000.0,0000.76,0001.56,0000.56
2023-11-19 09:37:00,SystemResetWarning,0822.9,4.99,000.00,024.0,022.8,000.0,032.5,025.4,16.2,0000.0,0000.74,0001.51,0000.56
2023-11-19 09:38:00,SystemResetWarning,0822.9,5.00,000.00,024.0,022.8,000.0,032.5,025.4,16.2,0000.0,0000.72,0001.19,0000.56
2023-11-19 09:39:00,SystemResetWarning,0822.9,5.00,000.00,024.0,022.8,000.0,032.5,025.3,16.2,0000.0,0000.74,0001.08,0000.57
2023-11-19 09:40:00,SystemResetWarning,0823.0,5.00,000.00,024.0,022.8,000.0,032.5,025.3,16.2,0000.0,0000.74,0001.10,0000.56
2023-11-19 09:41:00,SystemResetWarning,0822.9,5.00,000.00,024.0,022.8,000.0,032.4,025.3,16.2,0000.0,0000.73,0001.09,0000.56
2023-11-19 09:42:00,SystemResetWarning,0822.9,5.01,000.00,024.0,022.8,000.0,032.4,025.3,16.1,0000.0,0000.71,0001.04,0000.56
2023-11-19 09:43:00,SystemResetWarning,0822.9,5.01,000.00,024.0,022.7,000.0,032.4,025.3,15.9,0000.0,0000.68,0000.97,0000.55
2023-11-19 09:44:00,SystemResetWarning,0822.9,5.00,000.00,024.0,022.7,000.0,032.4,025.2,15.9,0000.0,0000.68,0000.95,0000.56
2023-11-19 09:45:00,SystemResetWarning,0822.9,5.00,000.00,024.0,022.7,000.0,032.4,025.3,15.8,0000.0,0000.70,0001.00,0000.58
2023-11-19 09:46:00,SystemResetWarning,0822.8,4.99,000.00,024.0,022.7,000.0,032.4,025.2,15.7,0000.0,0000.71,0001.04,0000.58
2023-11-19 09:47:00,SystemResetWarning,0822.9,5.00,000.00,023.9,022.7,000.0,032.4,025.2,15.7,0000.0,0000.71,0001.02,0000.57
2023-11-19 09:48:00,SystemResetWarning,0822.8,5.01,000.00,023.9,022.7,000.0,032.4,025.2,15.8,0000.0,0000.72,0001.04,0000.57
2023-11-19 09:49:00,SystemResetWarning,0822.9,5.01,000.00,023.9,022.7,000.0,032.4,025.2,15.9,0000.0,0000.74,0001.10,0000.58
2023-11-19 09:50:00,SystemResetWarning,0822.9,5.00,000.00,023.9,022.7,000.0,032.4,025.2,16.0,0000.0,0000.72,0001.05,0000.57
2023-11-19 09:51:00,SystemResetWarning,0823.1,5.00,000.00,023.9,022.7,000.0,032.4,025.2,15.7,0000.0,0000.72,0001.04,0000.57
2023-11-19 09:52:00,SystemResetWarning,0823.0,4.99,000.00,023.9,022.7,000.0,032.4,025.2,15.7,0000.0,0000.72,0001.05,0000.57
2023-11-19 09:53:00,SystemResetWarning,0822.7,4.99,000.00,023.9,022.7,000.0,032.3,025.1,15.1,0000.0,0000.73,0001.10,0000.57
2023-11-19 09:54:00,SystemResetWarning,0822.8,5.00,000.00,023.9,022.7,000.0,032.3,025.1,14.9,0000.0,0000.74,0001.15,0000.57
2023-11-19 09:55:00,SystemResetWarning,0822.8,5.01,000.00,023.9,022.7,000.0,032.3,025.1,15.0,0000.0,0000.74,0001.14,0000.56
2023-11-19 09:56:00,SystemResetWarning,0822.7,5.01,000.00,023.9,022.6,000.0,032.3,025.1,14.9,0000.0,0000.74,0001.15,0000.56
2023-11-19 09:57:00,SystemResetWarning,0822.7,5.00,000.00,023.8,022.6,000.0,032.3,025.1,14.9,0000.0,0000.74,0001.97,0000.56
2023-11-19 09:58:00,SystemResetWarning,0822.6,5.00,000.00,023.8,022.6,000.0,032.3,025.0,14.9,0000.0,0000.73,0001.98,0000.57
2023-11-19 09:59:00,SystemResetWarning,0822.7,5.00,000.00,023.8,022.6,000.0,032.3,025.0,14.8,0000.0,0000.74,0002.00,0000.57
